Theta_e
317 310 303 307 298 296 292 296 298 297 299 308 311 310 307 312 309 301 326 335 338 341 344 347 349 351 352 351 350 350 350 350 347 346 344 341 340 340 340 340 342 339 337 336 334 333 336 336 336
313 308 305 301 294 289 291 297 300 301 304 316 312 313 313 312 321 324 328 337 340 342 344 346 346 350 351 351 350 349 349 349 348 345 343 340 340 340 340 339 339 340 336 337 335 335 335 334 334
306 307 300 298 292 290 292 297 300 303 308 307 309 316 315 315 322 326 331 338 341 342 344 344 345 350 350 350 349 348 348 349 348 344 342 340 340 340 339 340 342 339 336 335 335 334 334 334 334
301 301 298 293 292 295 297 297 302 304 304 307 312 312 318 325 325 328 338 339 339 341 344 342 345 349 350 349 349 349 348 348 347 344 342 340 340 340 340 339 339 340 337 336 336 334 334 334 335
302 295 289 290 292 294 298 300 305 304 304 304 310 309 314 325 331 336 337 338 337 340 343 342 344 347 348 349 349 348 348 347 346 345 344 342 341 341 340 340 340 341 338 337 335 335 335 334 334
297 293 285 284 287 292 296 301 300 303 304 305 311 314 317 327 332 335 337 336 338 339 342 343 337 341 344 346 347 347 347 346 345 345 344 343 340 339 339 341 342 339 337 336 334 333 332 332 332
293 289 287 286 287 289 293 299 301 303 304 304 315 311 314 321 331 337 336 337 337 339 340 341 342 340 336 340 341 342 344 344 344 344 343 341 339 339 340 341 341 339 336 333 333 332 332 332 333
297 291 286 286 286 289 293 299 301 303 304 306 313 312 313 322 332 333 335 336 336 337 339 339 341 340 340 340 334 336 338 339 340 339 337 334 333 334 334 333 336 338 337 335 335 334 334 334 334
297 290 287 288 287 289 295 296 299 299 301 302 305 316 318 325 330 330 331 333 334 336 337 338 338 337 337 337 333 331 333 334 334 332 329 326 331 331 330 328 332 336 335 336 335 334 334 332 330
294 288 291 292 291 292 295 294 296 297 297 300 310 318 323 325 329 328 328 328 330 331 334 336 337 336 336 338 334 333 334 334 333 333 330 330 330 330 330 325 326 331 331 332 333 334 331 327 325
295 290 292 294 296 295 295 294 295 295 295 300 310 316 323 322 326 328 329 330 330 332 333 335 336 336 336 336 333 333 332 332 331 331 330 330 329 327 328 328 329 329 324 325 323 319 312 310 310
290 296 296 296 298 297 295 295 294 294 296 299 307 320 323 321 323 326 328 329 330 331 332 334 336 336 336 336 334 334 333 330 328 328 329 328 327 328 330 331 329 328 325 312 306 305 304 303 304
291 294 295 296 296 294 295 294 292 294 297 298 308 319 323 323 323 325 329 330 331 330 332 333 336 335 335 333 334 333 332 329 325 325 326 328 328 326 318 311 309 307 305 304 302 302 301 301 302
292 294 294 294 294 294 293 292 292 296 296 297 297 312 316 323 323 321 324 327 329 331 331 333 334 334 335 332 331 332 329 324 319 317 318 318 316 310 307 304 303 301 300 299 299 298 298 298 299
294 290 292 292 293 293 293 290 290 297 296 295 295 297 307 318 321 323 325 325 329 331 332 331 332 333 332 332 331 329 325 319 312 309 310 309 307 305 303 301 299 299 299 299 299 299 299 299 299
289 287 284 291 292 294 293 289 293 297 294 295 294 295 296 305 317 322 326 327 328 330 329 330 332 331 331 329 324 320 315 312 308 306 306 306 303 301 300 299 298 298 298 298 298 297 297 297 297
284 281 284 288 293 290 289 286 293 295 293 293 293 292 294 296 301 306 309 315 326 329 329 328 329 328 324 319 317 313 310 307 305 303 302 301 301 300 299 298 297 297 297 297 297 296 296 295 295
281 282 283 284 289 289 286 285 291 292 290 290 290 291 291 294 297 303 299 300 303 326 328 329 327 323 316 311 307 307 306 306 303 300 300 300 299 299 298 297 297 297 296 295 296 295 295 295 293
285 284 282 285 289 287 286 286 288 293 290 289 289 289 290 291 296 295 296 296 296 319 326 326 321 315 311 308 306 305 302 302 301 300 301 299 298 298 297 296 295 295 294 294 295 294 293 293 293
284 282 282 285 289 287 286 286 290 290 291 292 292 290 289 291 293 293 294 293 301 314 322 321 318 312 311 311 310 305 301 300 298 300 300 298 297 297 296 295 294 294 293 293 292 292 291 291 292
284 281 281 282 286 288 283 284 287 290 291 292 292 294 293 292 294 295 294 294 304 312 318 318 314 311 310 308 301 299 300 299 298 298 297 296 296 296 295 294 293 293 293 292 291 291 291 289 290
282 287 285 284 281 277 284 277 285 287 290 291 294 294 294 295 295 296 295 293 304 310 313 314 309 308 305 302 303 300 300 298 296 297 296 295 295 294 294 294 293 293 292 291 290 291 290 289 288
284 289 287 285 280 277 281 276 282 287 288 290 292 293 295 297 297 295 296 296 302 309 308 307 306 304 301 303 302 302 299 296 297 296 294 293 293 294 293 293 292 291 290 289 289 288 288 289 288
289 288 287 287 282 275 281 279 283 285 288 290 292 294 295 295 295 295 295 293 302 304 305 302 301 300 300 301 302 302 298 295 296 294 293 292 292 291 292 292 291 290 289 288 288 288 288 288 288
288 284 277 275 275 275 280 280 283 288 290 290 291 293 293 293 293 292 292 295 298 298 299 299 300 297 299 300 300 299 298 297 296 295 294 291 290 290 290 290 290 289 289 289 288 288 288 288 288
282 282 276 272 272 274 278 277 281 286 288 288 288 289 290 291 291 291 292 295 296 297 298 299 298 295 297 298 298 298 298 297 297 295 293 291 291 290 290 290 289 289 289 288 288 288 288 289 288
280 278 286 279 277 276 279 280 285 287 287 288 288 287 286 288 288 289 290 292 294 294 296 297 296 295 296 296 296 296 296 296 294 293 292 291 290 290 289 289 289 289 289 289 288 288 288 288 289
283 286 277 278 271 270 274 275 276 283 284 286 287 287 288 287 288 289 289 290 291 291 292 293 295 294 294 294 294 294 294 294 293 292 291 290 289 290 289 289 288 288 288 288 287 287 287 287 288
276 275 279 280 278 273 272 276 284 284 285 284 287 288 289 287 287 288 288 290 290 290 291 291 292 292 292 293 292 292 292 292 292 291 290 290 289 289 289 288 287 287 286 286 286 286 286 287 290
279 274 275 267 268 272 275 274 289 287 285 287 286 287 290 290 286 288 288 289 289 289 290 290 291 291 292 292 292 292 292 291 290 289 289 289 288 288 287 287 286 286 286 286 286 286 286 285 287
Wind_Speed
7 6 2 4 3 5 5 8 3 3 1 1 2 4 9 2 5 6 4 7 15 17 14 14 17 18 17 16 15 14 15 15 16 14 13 12 11 11 11 10 8 10 10 11 12 10 9 9 9
3 3 5 3 4 1 7 6 6 6 3 7 4 3 3 2 3 6 10 9 18 16 14 13 15 17 17 17 16 14 14 14 15 15 13 12 11 10 9 7 6 8 8 8 9 10 11 10 9
2 2 4 4 4 7 6 5 8 3 6 2 3 4 2 4 2 10 4 15 18 16 13 12 16 18 17 17 16 15 14 13 14 14 13 12 12 11 9 9 9 8 7 7 7 7 7 7 7
3 4 5 4 9 7 7 4 1 4 2 2 4 5 1 3 7 8 14 16 16 16 13 14 17 19 18 17 17 16 15 14 13 12 12 11 11 10 8 8 6 7 7 5 5 5 4 4 5
4 3 1 3 7 6 5 5 7 3 4 4 3 5 1 2 6 15 17 15 16 15 12 13 16 19 18 18 16 16 14 14 13 12 11 10 9 8 7 7 6 8 7 5 4 4 4 4 5
3 3 1 6 6 5 6 8 4 3 3 4 5 6 5 3 11 12 14 14 14 15 16 12 13 16 16 16 16 15 15 14 12 11 10 10 9 8 6 8 8 8 6 4 3 3 2 3 5
4 4 5 4 5 5 9 5 6 7 4 5 10 6 2 4 7 11 12 12 11 12 16 15 10 12 12 12 12 13 13 12 11 11 10 9 8 7 6 8 9 8 6 4 3 2 2 4 4
4 4 3 5 4 8 3 4 3 7 6 3 3 7 5 6 11 9 10 10 10 11 13 14 11 9 9 9 12 12 11 11 10 10 9 9 7 7 7 7 7 6 5 4 2 1 3 5 7
4 1 4 5 5 7 3 3 2 1 5 1 4 7 3 16 14 12 10 11 12 10 13 13 9 8 8 8 8 10 11 10 10 8 8 6 4 5 6 5 6 6 5 3 1 1 3 6 6
4 4 7 5 3 4 6 3 3 2 2 2 1 2 8 18 17 17 18 15 16 17 15 13 11 10 9 8 7 5 6 5 5 5 6 4 5 4 3 4 5 4 4 1 3 3 6 5 3
5 7 4 5 4 3 4 4 5 3 4 7 8 6 12 15 15 17 18 19 19 18 14 16 13 11 11 7 6 4 3 4 4 6 5 5 3 3 3 2 2 2 2 2 4 4 4 4 4
3 8 6 4 3 3 4 4 5 5 5 5 9 11 15 15 17 17 17 19 19 18 18 17 16 12 11 6 7 7 6 4 4 4 6 4 3 3 3 2 2 2 2 3 4 2 3 4 5
6 5 4 5 6 5 4 7 5 8 9 5 3 6 15 16 17 15 15 14 16 19 16 15 14 13 10 8 7 7 7 6 5 4 5 4 4 3 3 3 3 3 3 3 3 3 3 4 4
2 4 6 6 5 4 4 4 5 10 5 7 4 10 8 13 16 8 11 15 16 16 16 16 16 14 12 10 9 8 6 6 4 4 3 5 4 5 4 4 4 3 3 3 2 2 2 3 3
3 6 6 7 5 7 5 8 12 11 4 10 11 8 10 12 8 16 17 17 17 15 15 15 17 16 14 12 10 7 6 7 5 5 5 6 5 6 6 4 4 3 3 4 3 3 3 4 4
4 1 4 4 6 6 9 19 8 8 8 13 11 11 9 14 15 12 12 14 15 15 15 15 13 14 14 11 8 7 7 6 6 5 5 5 6 7 5 5 4 3 3 3 3 3 3 3 4
4 6 7 7 7 3 6 6 5 3 8 12 10 8 10 9 10 10 8 10 12 15 15 15 12 14 12 9 7 7 8 6 5 5 6 6 7 6 6 4 4 4 4 4 3 3 2 3 4
6 6 6 6 1 3 8 10 15 6 3 9 8 9 10 11 15 12 9 9 8 10 13 14 11 13 12 9 8 6 6 4 4 4 5 6 5 6 6 4 5 4 4 3 3 3 3 2 3
6 6 9 4 5 4 8 14 14 16 9 9 9 10 9 11 11 8 8 8 8 7 12 14 14 13 12 9 9 5 7 5 4 3 9 7 6 6 6 4 4 4 4 3 2 2 4 4 4
9 13 15 9 7 5 9 20 14 12 14 14 14 10 11 7 8 10 9 8 9 11 13 14 15 16 12 10 8 5 7 5 2 3 4 7 6 6 6 6 4 5 4 5 4 3 2 2 4
12 9 8 12 7 8 3 24 15 11 12 11 13 14 11 14 14 11 10 12 10 13 15 15 16 17 13 13 10 9 8 6 3 3 2 4 7 6 6 6 5 5 4 4 3 3 4 2 3
9 5 8 10 2 5 2 16 8 2 14 11 15 15 17 16 15 14 11 10 13 13 11 14 15 16 13 16 12 20 12 10 4 5 3 6 6 6 6 6 5 6 4 5 4 3 2 3 2
6 8 5 3 5 3 9 3 6 2 10 9 10 14 16 19 19 16 16 17 14 12 13 12 14 14 15 15 14 14 13 5 7 7 8 6 5 6 6 6 6 6 4 4 5 4 4 2 2
5 6 10 4 4 6 16 10 24 8 9 7 7 12 12 13 12 12 9 8 10 9 11 12 15 13 15 13 15 15 16 13 12 9 8 6 4 4 5 6 5 5 5 5 5 5 5 4 4
8 5 5 4 4 8 2 10 22 8 14 11 14 16 15 8 9 9 10 11 12 14 13 12 15 14 14 14 14 13 15 14 16 14 10 10 6 3 5 5 5 4 5 5 5 5 5 4 3
12 3 4 8 4 6 3 7 6 7 15 17 14 16 12 13 8 7 7 9 13 14 15 15 14 12 13 14 12 11 13 10 8 9 10 6 6 6 6 5 5 6 6 5 5 3 2 3 3
5 5 4 6 9 8 6 7 3 17 22 23 23 22 20 14 9 7 1 2 5 10 13 14 14 12 12 12 11 10 10 12 10 11 9 6 6 6 6 6 6 6 6 5 5 3 3 2 1
2 10 7 3 4 5 4 4 3 14 19 22 22 22 23 17 11 7 5 5 5 5 6 8 10 13 10 11 9 9 10 10 12 10 10 9 7 7 7 6 6 6 5 5 5 3 2 3 1
15 6 6 6 6 5 3 2 4 7 13 18 21 17 19 19 13 9 6 6 6 6 5 6 8 11 10 9 9 11 10 10 10 10 9 9 8 8 7 7 6 6 6 5 5 4 3 3 2
4 8 4 4 9 8 10 9 5 10 12 12 18 17 20 17 11 9 7 5 4 4 5 6 6 8 8 9 10 10 10 10 11 10 9 9 9 7 7 6 6 6 6 5 5 4 3 3 1
Wind_Direction
333 322 79 39 48 66 264 259 257 278 259 34 66 148 169 111 158 203 141 152 137 148 154 151 156 157 152 152 146 149 148 145 139 133 128 125 123 118 116 112 103 100 91 85 81 87 84 74 68
345 349 45 78 109 139 265 248 245 226 155 134 110 75 75 146 117 118 128 164 146 148 153 154 155 156 155 152 153 155 156 149 146 140 138 135 131 125 117 114 129 113 104 95 88 86 86 77 65
328 21 96 142 176 192 228 226 246 226 165 209 84 57 128 178 69 151 142 150 144 150 155 155 152 156 157 156 157 158 161 159 149 148 149 147 145 142 133 123 131 118 115 116 102 90 83 77 71
59 11 26 118 230 253 214 252 222 153 228 201 131 89 353 246 158 163 139 143 144 151 157 158 156 153 159 160 160 161 163 160 150 152 153 153 153 152 152 147 137 120 107 104 102 85 69 51 39
43 58 118 232 247 254 251 270 165 241 184 153 154 190 356 27 104 136 141 147 148 153 154 161 159 153 159 161 162 161 162 155 153 159 158 154 156 159 161 168 146 127 117 105 86 68 50 29 5
53 93 86 233 243 255 251 233 197 210 222 144 86 130 162 112 131 149 144 148 150 153 160 163 156 153 159 161 161 160 156 155 158 159 156 155 158 162 169 181 160 144 137 125 112 90 49 16 353
126 108 228 250 259 268 228 180 185 192 199 223 149 131 264 170 152 145 144 140 144 148 161 169 163 156 155 156 154 155 156 156 158 161 158 152 156 158 152 141 149 154 157 150 128 95 38 9 359
116 104 262 244 220 263 269 186 168 158 217 95 149 172 208 182 150 128 132 136 143 150 165 170 170 163 165 167 159 158 158 158 162 155 157 160 164 164 162 162 165 165 168 155 126 44 0 349 342
131 47 248 253 172 254 314 213 300 14 138 158 177 162 207 131 132 129 136 153 155 158 168 173 161 161 158 157 165 161 160 163 158 155 165 156 158 179 181 189 194 192 184 168 151 351 344 342 335
154 180 226 224 234 271 303 293 214 162 151 220 229 46 122 138 152 157 167 169 173 175 177 176 170 167 162 167 157 158 154 159 163 162 162 164 171 186 176 204 227 191 173 209 319 350 27 14 351
191 218 215 262 247 235 283 302 319 164 246 219 194 168 155 153 166 168 176 179 178 176 178 181 176 172 170 170 157 155 157 161 163 168 168 171 171 185 190 185 202 172 121 71 45 35 37 22 20
229 249 237 269 264 290 272 304 310 211 236 294 212 171 164 169 175 178 179 180 180 180 181 184 181 176 176 162 172 170 166 170 171 176 177 167 175 188 177 163 151 117 68 79 57 38 18 15 11
216 254 262 272 294 260 312 264 254 270 253 302 147 164 181 183 185 189 184 176 178 184 181 182 178 177 178 172 175 175 176 173 166 175 187 176 172 155 120 103 84 78 76 63 44 29 22 11 4
295 273 266 277 255 258 236 256 153 255 223 226 228 212 215 197 193 176 179 182 182 185 184 178 185 178 179 185 179 181 173 156 146 157 164 145 135 132 120 115 104 89 75 63 52 39 24 14 8
293 297 295 233 223 234 177 273 226 233 166 213 218 225 226 222 207 201 190 189 184 188 181 182 186 175 178 182 176 169 163 147 144 140 134 124 121 125 125 122 112 99 73 73 43 20 25 19 1
313 243 312 285 190 238 147 260 253 246 202 240 222 220 223 230 218 212 202 195 188 186 184 183 184 174 173 168 155 148 145 139 138 133 123 134 125 124 121 120 116 111 84 77 60 27 13 13 5
342 267 242 302 189 119 202 278 253 245 190 239 243 227 231 234 230 229 208 193 190 187 183 184 179 166 154 138 134 132 127 128 138 127 128 131 119 119 115 115 113 98 86 72 60 47 40 17 344
241 251 261 254 346 197 246 248 275 259 257 251 261 249 227 234 233 219 211 210 196 190 186 177 170 156 135 117 105 105 105 111 134 116 120 119 114 113 109 107 104 99 93 70 66 87 39 60 330
324 282 267 315 1 302 258 270 257 273 273 265 260 254 247 236 245 228 221 208 196 200 182 176 160 157 142 137 132 135 138 131 124 144 133 114 116 116 117 110 107 103 107 106 86 110 67 19 347
287 290 289 265 252 227 273 271 260 261 259 242 248 239 239 245 237 234 215 193 199 190 186 177 170 163 162 154 155 134 140 120 87 93 115 118 122 122 123 126 125 120 115 96 70 71 103 43 12
292 268 277 260 280 241 305 282 259 242 244 240 241 239 232 228 238 238 214 199 187 190 188 177 172 168 160 147 123 103 89 94 110 141 151 121 126 121 123 127 126 119 120 113 99 84 99 122 22
291 296 283 295 294 258 171 283 231 252 252 227 245 233 233 234 237 231 207 196 195 197 179 176 167 163 157 154 151 157 158 161 196 145 136 131 119 121 126 127 124 118 114 112 112 93 99 118 131
238 288 242 320 301 6 233 281 279 128 256 253 251 244 236 234 228 226 211 200 192 172 176 167 163 160 157 164 164 157 153 130 135 126 136 125 121 126 127 128 125 120 115 109 110 106 100 79 105
319 335 288 178 173 231 243 198 277 252 259 252 248 260 249 244 241 237 221 171 171 162 165 166 164 163 162 160 161 162 152 144 142 140 151 141 127 128 133 132 131 131 125 123 118 114 110 108 101
33 317 295 241 208 241 263 180 249 305 327 323 317 309 299 273 240 221 190 182 167 169 163 164 167 165 162 158 161 161 154 153 160 160 155 148 144 142 159 140 148 141 133 131 134 132 131 133 126
296 268 281 312 316 293 26 214 235 12 11 0 349 324 317 322 294 256 230 189 172 169 167 165 164 155 156 157 156 153 149 143 160 160 139 156 146 143 151 145 147 142 140 141 143 141 164 168 164
330 284 289 279 248 257 208 260 303 12 15 2 2 3 339 334 332 313 11 143 164 163 166 160 155 154 153 150 140 141 145 141 150 145 127 144 127 137 142 142 136 132 133 144 154 147 135 109 106
304 334 308 239 276 264 286 299 3 14 4 359 358 357 352 338 340 359 40 59 68 94 107 122 144 151 144 136 141 140 141 138 134 143 137 142 131 129 137 137 134 131 128 133 134 122 108 103 92
322 343 307 304 262 289 271 246 254 48 16 4 347 347 351 348 337 339 10 24 46 61 87 105 121 129 129 129 127 131 129 133 136 130 137 136 129 137 140 145 141 139 136 135 125 122 115 132 179
346 40 39 28 323 296 279 282 63 41 7 350 338 346 349 351 342 340 348 37 57 78 101 114 113 121 125 127 127 126 130 135 127 128 141 133 139 141 144 141 138 140 139 138 130 133 132 173 228